Location: St. Louis
(38.6270°N, 90.1994°W)
Time: 14:48:18
(UTC-06:00)

S-56A Canister/Altair - Pass Details

Date: 30 November 2021
Orbit: 633 x 2499 km, 38.9° (Epoch: 19 January)

Event Time Altitude Azimuth Distance (km) Brightness Sun altitude
Rises 05:20:05 0° 282° (WNW) 3,377 - -18.9°
Reaches altitude 10° 05:22:50 10° 278° (W) 2,267 - -18.4°
Exits shadow 05:25:46 32° 265° (W) 1,160 7.9 -17.8°
Maximum altitude 05:27:44 59° 200° (SSW) 755 7.4 -17.5°
Drops below altitude 10° 05:32:04 10° 120° (ESE) 2,007 10.9 -16.6°
Sets 05:34:23 0° 117° (ESE) 2,950 12.2 -16.2°
